Regional Weather Roundup
Issued by NWS

Home | Current Version | Previous Version | Text Only | Print | Product List | Glossary On
Versions: 1 2 3 4 5 6 7 8 9 10 11 12 13 14 15 16 17 18 19 20 21 22 23 24 25 26 27 28 29 30 31 32 33 34 35 36 37 38 39 40 41 42 43 44 45 46 47 48 49 50
000
ASUS43 KDTX 102101
RWRMI
MICHIGAN HOURLY REGIONAL WEATHER ROUNDUP
NATIONAL WEATHER SERVICE DETROIT/PONTIAC MI
500 PM EDT THU JUL 10 2014

NOTE: "FAIR" INDICATES FEW OR NO CLOUDS BELOW 12,000 FEET WITH NO
SIGNIFICANT WEATHER AND/OR OBSTRUCTION TO VISIBILITY.

MIZ047>049-052>055-059>063-066>070-074>076-081>083-102200-
SOUTHEAST LOWER MICHIGAN

CITY           SKY/WX    TMP DP  RH WIND       PRES   REMARKS
ADRIAN         MOSUNNY   76  51  41 VRB6      30.15F
ALMA           SUNNY     72  44  36 CALM      30.18S
ANN ARBOR      CLOUDY    74  54  49 NE6       30.15S
BAD AXE        SUNNY     67  51  56 N5        30.19S
CARO           SUNNY     73  55  52 N9        30.17S
DETROIT CITY   SUNNY     78  54  43 CALM      30.14F
DETROIT        PTSUNNY   73  56  54 E5        30.15S
FLINT          MOSUNNY   75  53  46 N6        30.16F
GROSSE ILE     MOSUNNY   75  59  57 S7        30.14S
HILLSDALE      MOSUNNY   75  54  48 CALM      30.17S
HOWELL         SUNNY     72  54  52 N3        30.16F

CITY           SKY/WX    TMP DP  RH WIND       PRES   REMARKS
JACKSON        MOSUNNY   76  55  48 VRB3      30.16F
LAMBERTVILLE   MOSUNNY   77  57  50 E6        30.14F
LANSING        MOSUNNY   74  52  46 N6        30.18S
LAPEER         FAIR      72  54  52 E3        30.17S
MASON          MOSUNNY   74  56  52 NE5       30.16S
MONROE         SUNNY     75  57  53 S5        30.13S
MT. CLEMENS    MOSUNNY   72  62  70 E8        30.14F
PONTIAC        MOSUNNY   72  52  49 CALM      30.15F
PORT HOPE        N/A     63  50  62 NE7       30.19F
PORT HURON     CLOUDY    70  59  68 NE8       30.17F
TRI CITIES     SUNNY     75  47  36 SW5       30.18S
TROY           MOSUNNY   73  54  50 E3        30.15F
SAGINAW HB     SUNNY     72  50  46 E8        30.17S
$$
MIZ043>046-050>051-056>058-064>065-071>073-077>080-102200-
SOUTHWEST LOWER MICHIGAN

CITY           SKY/WX    TMP DP  RH WIND       PRES   REMARKS
BATTLE CREEK   SUNNY     75  54  47 N6        30.18S
BENTON HARBOR  SUNNY     71  49  45 NW3       30.17F
BIG RAPIDS     PTSUNNY   74  47  38 SW3       30.17S
COLDWATER      MOSUNNY   75  55  51 NE5       30.16F
FREMONT        FAIR      74  47  37 CALM      30.17S
HOLLAND        SUNNY     75  56  51 NW6       30.18F
GRAND RAPIDS   MOSUNNY   74  51  44 VRB3      30.17F
IONIA          CLOUDY    71  51  49 CALM      30.17S
KALAMAZOO      MOSUNNY   74  51  44 N6        30.17F
LUDINGTON      SUNNY     71  48  45 W7        30.18S
MARSHALL       PTSUNNY   75  54  46 NW3       30.16S
MOUNT PLEASANT SUNNY     73  49  42 SW3       30.17S
MUSKEGON       MOSUNNY   73  49  42 W9        30.17F
SOUTH HAVEN    SUNNY     72  55  55 NW7       30.17F
$$
MIZ016>042-102200-
NORTHERN LOWER MICHIGAN

CITY           SKY/WX    TMP DP  RH WIND       PRES   REMARKS
ALPENA         SUNNY     69  48  47 E12       30.18S
BEAVER ISLAND  SUNNY     69  49  47 SW8       30.18S
BELLAIRE       SUNNY     74  43  33 CALM      30.16F
CADILLAC       SUNNY     72  49  43 SW6       30.16F
CHARLEVOIX     SUNNY     68  47  47 N6        30.21F
FRANKFORT      SUNNY     71  50  46 W8        30.17F
GAYLORD        SUNNY     71  45  39 NW6       30.17F
GRAYLING       SUNNY     73  41  31 NW6       30.17F
HARBOR SPRINGS SUNNY     69  47  45 SW6       30.16F
HOUGHTON LAKE  SUNNY     73  43  33 W7        30.18F
MANISTEE       SUNNY     70  48  46 W8        30.18F
OSCODA         SUNNY     67  48  50 SE8       30.19S
PELLSTON       MOSUNNY   73  48  41 VRB7      30.17F
ROGERS CITY    SUNNY     66  49  53 NE8       30.19F
TRAVERSE CITY  MOSUNNY   72  47  40 NE8       30.15F
$$
MIZ007>008-015-102200-
EASTERN UPPER MICHIGAN

CITY           SKY/WX    TMP DP  RH WIND       PRES   REMARKS
KINROSS        MOSUNNY   72  46  40 S8        30.16S
MACKINAC ISLAN SUNNY     67  49  53 W7        30.17S
NEWBERRY       SUNNY     69  50  51 S10G20    30.15F
S. S. MARIE    PTSUNNY   71  46  40 NW7       30.14F
$$
MIZ004>006-011>014-085-102200-
CENTRAL UPPER MICHIGAN

CITY           SKY/WX    TMP DP  RH WIND       PRES   REMARKS
MANISTIQUE     SUNNY     63  53  70 SW8       30.17F
ESCANABA       SUNNY     66  54  63 SE13      30.14F
MENOMINEE      SUNNY     72  55  56 S14G20    30.13F
SAWYER-GWINN   MOSUNNY   75  48  38 SW14      30.12F
$$
MIZ001>003-009>011-084-102200-
WESTERN UPPER MICHIGAN

CITY           SKY/WX    TMP DP  RH WIND       PRES   REMARKS
IRON MOUNTAIN  PTSUNNY   74  52  46 S5        30.10F
HOUGHTON       SUNNY     71  49  45 E9        30.08F
COPPER HARBOR    N/A     72  46  39 SW9       30.08F
$$

ABBREVIATIONS USED IN REMARKS
   TC - TEMPERATURE IN CELSIUS
  WCI - WIND CHILL INDEX
   HX - HEAT INDEX
  VSB - VISIBILITY



USA.gov is the U.S. government's official web portal to all federal, state and local government web resources and services.